sat.trackr.live / text

‹ back to catalog

STARLINK-37074

NORAD 68073 · 2026-042E

PAYLOAD ACTIVE UNKNOWN

§ Identity

Operator
Country
US
Launch date
2026-03-04
Launch site
AFETR
Launch vehicle
Mass (kg)
RCS (m²)

Purposes: comms

External: N2YO · Heavens-Above · Gunter

§ Orbital elements

Epoch: 2026-05-24T20:04:45.500736Z

Period
93.85 min
Inclination
53.1584°
Eccentricity
0.0001203
Mean motion
15.34405939 rev/d
Perigee alt
461.9 km
Apogee alt
463.5 km
Semi-major
6,840.8 km
B*
5.0089e-4
RAAN
184.3098°
Arg perigee
87.3283°
Mean anomaly
272.7858°
Rev number
1,397

§ Raw data

STARLINK-370741 68073U 26042E   26144.83663774  .00016588  00000+0  50089-3 0  99912 68073  53.1584 184.3098 0001203  87.3283 272.7858 15.34405939 13974

JSON: /api/v1/satellites/68073 · /tle

For live sub-satellite position, see the globe view (requires WebGL).

§ Visibility from observer

Set your observer location to see the next 7 days of passes ≥ 10°. The values pass through the URL so the page stays shareable.

No JS? Fill the form by hand. The geolocation button needs JavaScript.